owner,sensor,date,latitude,longitude,vertical_datum,direction_of_sea_water_velocity,sea_water_speed,upward_sea_water_velocity,qcFlag 
ADCP,ioos:station:wmo:42890:1,2015-07-01T00:12:00Z,27.6250,-90.4410,15.2,306.0,9.7,-9999.0,'11133222,11111222,99999999' 
ADCP,ioos:station:wmo:42890:1,2015-07-01T00:32:00Z,27.6250,-90.4410,15.2,192.0,4.5,-9999.0,'11133222,11111222,99999999' 
ADCP,ioos:station:wmo:42890:1,2015-07-01T00:52:00Z,27.6250,-90.4410,15.2,240.0,8.2,-9999.0,'11133222,11111222,99999999' 
ADCP,ioos:station:wmo:42890:1,2015-07-01T01:12:00Z,27.6250,-90.4410,15.2,282.0,9.2,-99999.0,'1111122,1111122,1199999999' 
ADCP,ioos:station:wmo:42890:1,2015-07-01T01:32:00Z,27.6250,-90.4410,15.2,186.0,7.2,-9999.0,'11133222,11111222,99999999' 
ADCP,ioos:station:wmo:42890:1,2015-07-01T01:52:00Z,27.6250,-90.4410,15.2,230.0,7.8,-9999.0,'11133222,11111222,99999999' 
ADCP,ioos:station:wmo:42890:1,2015-07-01T02:12:00Z,27.6250,-90.4410,15.2,241.0,9.2,-99999.0,'1111122,1111122,1199999999' 
ADCP,ioos:station:wmo:42890:1,2015-07-01T02:32:00Z,27.6250,-90.4410,15.2,205.0,11.0,-9999.0,'11111222,11111222,99999999' 
ADCP,ioos:station:wmo:42890:1,2015-07-01T02:52:00Z,27.6250,-90.4410,15.2,220.0,13.3,-9999.0,'11111222,11111222,99999999' 
ADCP,ioos:station:wmo:42890:1,2015-07-01T03:12:00Z,27.6250,-90.4410,15.2,242.0,7.3,-99999.0,'1111122,1111122,1199999999' 
ADCP,ioos:station:wmo:42890:1,2015-07-01T03:32:00Z,27.6250,-90.4410,15.2,194.0,40.6,-9999.0,'11111222,11111222,99999999' 
ADCP,ioos:station:wmo:42890:1,2015-07-01T03:52:00Z,27.6250,-90.4410,15.2,180.0,40.5,-9999.0,'11111222,11111222,99999999' 
ADCP,ioos:station:wmo:42890:1,2015-07-01T04:12:00Z,27.6250,-90.4410,15.2,179.0,39.2,-9999.0,'11111222,11111222,99999999' 
ADCP,ioos:station:wmo:42890:1,2015-07-01T04:32:00Z,27.6250,-90.4410,15.2,180.0,32.5,-9999.0,'11111222,11111222,99999999' 
ADCP,ioos:station:wmo:42890:1,2015-07-01T04:52:00Z,27.6250,-90.4410,15.2,176.0,14.9,-9999.0,'11111222,11111222,99999999' 
ADCP,ioos:station:wmo:42890:1,2015-07-01T05:12:00Z,27.6250,-90.4410,15.2,203.0,14.7,-99999.0,'1111122,1111122,1199999999' 
ADCP,ioos:station:wmo:42890:1,2015-07-01T05:32:00Z,27.6250,-90.4410,15.2,165.0,28.4,-9999.0,'11111222,11111222,99999999' 
ADCP,ioos:station:wmo:42890:1,2015-07-01T05:52:00Z,27.6250,-90.4410,15.2,185.0,20.9,-9999.0,'11111222,11111222,99999999' 
ADCP,ioos:station:wmo:42890:1,2015-07-01T06:12:00Z,27.6250,-90.4410,15.2,160.0,14.5,-99999.0,'1111122,1111122,1199999999' 
ADCP,ioos:station:wmo:42890:1,2015-07-01T06:32:00Z,27.6250,-90.4410,15.2,249.0,34.0,-99999.0,'1111122,1111122,1199999999' 
ADCP,ioos:station:wmo:42890:1,2015-07-01T06:52:00Z,27.6250,-90.4410,15.2,247.0,29.6,-9999.0,'11111222,11111222,99999999' 
ADCP,ioos:station:wmo:42890:1,2015-07-01T07:12:00Z,27.6250,-90.4410,15.2,258.0,25.7,-9999.0,'11111222,11111222,99999999' 
ADCP,ioos:station:wmo:42890:1,2015-07-01T07:32:00Z,27.6250,-90.4410,15.2,260.0,22.5,-9999.0,'11111222,11111222,99999999' 
ADCP,ioos:station:wmo:42890:1,2015-07-01T07:52:00Z,27.6250,-90.4410,15.2,207.0,13.8,-9999.0,'11111222,11111222,99999999' 
ADCP,ioos:station:wmo:42890:1,2015-07-01T08:12:00Z,27.6250,-90.4410,15.2,239.0,18.1,-9999.0,'11111222,11111222,99999999' 
ADCP,ioos:station:wmo:42890:1,2015-07-01T08:32:00Z,27.6250,-90.4410,15.2,268.0,14.8,-9999.0,'11111222,11111222,99999999' 
ADCP,ioos:station:wmo:42890:1,2015-07-01T08:52:00Z,27.6250,-90.4410,15.2,251.0,14.5,-9999.0,'11111222,11111222,99999999' 
ADCP,ioos:station:wmo:42890:1,2015-07-01T09:12:00Z,27.6250,-90.4410,15.2,4.0,21.2,-99999.0,'1111122,1111122,1199999999' 
ADCP,ioos:station:wmo:42890:1,2015-07-01T09:32:00Z,27.6250,-90.4410,15.2,302.0,18.7,-9999.0,'11111222,11111222,99999999' 
ADCP,ioos:station:wmo:42890:1,2015-07-01T09:52:00Z,27.6250,-90.4410,15.2,302.0,17.4,-9999.0,'11111222,11111222,99999999' 
ADCP,ioos:station:wmo:42890:1,2015-07-01T10:12:00Z,27.6250,-90.4410,15.2,306.0,18.6,-99999.0,'1111122,1111122,1199999999' 
ADCP,ioos:station:wmo:42890:1,2015-07-01T10:32:00Z,27.6250,-90.4410,15.2,295.0,23.1,-9999.0,'11111222,11111222,99999999' 
ADCP,ioos:station:wmo:42890:1,2015-07-01T10:52:00Z,27.6250,-90.4410,15.2,319.0,21.4,-9999.0,'11111222,11111222,99999999' 
ADCP,ioos:station:wmo:42890:1,2015-07-01T11:12:00Z,27.6250,-90.4410,15.2,321.0,18.9,-99999.0,'1111122,1111122,1199999999' 
ADCP,ioos:station:wmo:42890:1,2015-07-01T11:32:00Z,27.6250,-90.4410,15.2,344.0,20.3,-9999.0,'11111222,11111222,99999999' 
ADCP,ioos:station:wmo:42890:1,2015-07-01T11:52:00Z,27.6250,-90.4410,15.2,13.0,21.4,-9999.0,'11111222,11111222,99999999' 
ADCP,ioos:station:wmo:42890:1,2015-07-01T12:12:00Z,27.6250,-90.4410,15.2,3.0,24.8,-99999.0,'1111122,1111122,1199999999' 
ADCP,ioos:station:wmo:42890:1,2015-07-01T12:32:00Z,27.6250,-90.4410,15.2,347.0,25.1,-9999.0,'11111222,11111222,99999999' 
ADCP,ioos:station:wmo:42890:1,2015-07-01T12:52:00Z,27.6250,-90.4410,15.2,344.0,31.2,-9999.0,'11111222,11111222,99999999' 
ADCP,ioos:station:wmo:42890:1,2015-07-01T13:12:00Z,27.6250,-90.4410,15.2,4.0,34.2,-99999.0,'1111122,1111122,1199999999' 
ADCP,ioos:station:wmo:42890:1,2015-07-01T13:32:00Z,27.6250,-90.4410,15.2,350.0,32.5,-9999.0,'11111222,11111222,99999999' 
ADCP,ioos:station:wmo:42890:1,2015-07-01T13:52:00Z,27.6250,-90.4410,15.2,355.0,33.5,-9999.0,'11111222,11111222,99999999' 
ADCP,ioos:station:wmo:42890:1,2015-07-01T14:12:00Z,27.6250,-90.4410,15.2,357.0,38.2,-99999.0,'1111122,1111122,1199999999' 
ADCP,ioos:station:wmo:42890:1,2015-07-01T14:32:00Z,27.6250,-90.4410,15.2,2.0,38.5,-9999.0,'11111222,11111222,99999999' 
ADCP,ioos:station:wmo:42890:1,2015-07-01T14:52:00Z,27.6250,-90.4410,15.2,348.0,43.3,-9999.0,'11111222,11111222,99999999' 
ADCP,ioos:station:wmo:42890:1,2015-07-01T15:12:00Z,27.6250,-90.4410,15.2,349.0,51.0,-99999.0,'1111122,1111122,1199999999' 
ADCP,ioos:station:wmo:42890:1,2015-07-01T15:32:00Z,27.6250,-90.4410,15.2,4.0,49.2,-99999.0,'1111122,1111122,1199999999' 
ADCP,ioos:station:wmo:42890:1,2015-07-01T15:52:00Z,27.6250,-90.4410,15.2,356.0,52.3,-9999.0,'11111222,11111222,99999999' 
ADCP,ioos:station:wmo:42890:1,2015-07-01T16:12:00Z,27.6250,-90.4410,15.2,359.0,53.0,-9999.0,'11111222,11111222,99999999' 
ADCP,ioos:station:wmo:42890:1,2015-07-01T16:32:00Z,27.6250,-90.4410,15.2,15.0,53.0,-9999.0,'11111222,11111222,99999999' 
ADCP,ioos:station:wmo:42890:1,2015-07-01T16:52:00Z,27.6250,-90.4410,15.2,9.0,46.2,-9999.0,'11111222,11111222,99999999' 
ADCP,ioos:station:wmo:42890:1,2015-07-01T17:12:00Z,27.6250,-90.4410,15.2,5.0,54.2,-99999.0,'1111122,1111122,1199999999' 
ADCP,ioos:station:wmo:42890:1,2015-07-01T17:32:00Z,27.6250,-90.4410,15.2,7.0,54.0,-9999.0,'11111222,11111222,99999999' 
ADCP,ioos:station:wmo:42890:1,2015-07-01T17:52:00Z,27.6250,-90.4410,15.2,22.0,60.1,-9999.0,'11111222,11111222,99999999' 
ADCP,ioos:station:wmo:42890:1,2015-07-01T18:12:00Z,27.6250,-90.4410,15.2,19.0,50.2,-99999.0,'1111122,1111122,1199999999' 
ADCP,ioos:station:wmo:42890:1,2015-07-01T18:32:00Z,27.6250,-90.4410,15.2,25.0,48.9,-9999.0,'11111222,11111222,99999999' 
ADCP,ioos:station:wmo:42890:1,2015-07-01T18:52:00Z,27.6250,-90.4410,15.2,32.0,40.5,-9999.0,'11111222,11111222,99999999' 
ADCP,ioos:station:wmo:42890:1,2015-07-01T19:12:00Z,27.6250,-90.4410,15.2,23.0,37.7,-99999.0,'1111122,1111122,1199999999' 
ADCP,ioos:station:wmo:42890:1,2015-07-01T19:32:00Z,27.6250,-90.4410,15.2,357.0,31.2,-9999.0,'11111222,11111222,99999999' 
ADCP,ioos:station:wmo:42890:1,2015-07-01T19:52:00Z,27.6250,-90.4410,15.2,4.0,45.0,-9999.0,'11111222,11111222,99999999' 
ADCP,ioos:station:wmo:42890:1,2015-07-01T20:12:00Z,27.6250,-90.4410,15.2,36.0,46.2,-99999.0,'1111122,1111122,1199999999' 
ADCP,ioos:station:wmo:42890:1,2015-07-01T20:32:00Z,27.6250,-90.4410,15.2,25.0,46.7,-9999.0,'11111222,11111222,99999999' 
ADCP,ioos:station:wmo:42890:1,2015-07-01T20:52:00Z,27.6250,-90.4410,15.2,23.0,34.4,-9999.0,'11111222,11111222,99999999' 
ADCP,ioos:station:wmo:42890:1,2015-07-01T21:12:00Z,27.6250,-90.4410,15.2,360.0,37.5,-99999.0,'1111122,1111122,1199999999' 
ADCP,ioos:station:wmo:42890:1,2015-07-01T21:32:00Z,27.6250,-90.4410,15.2,37.0,28.7,-9999.0,'11111222,11111222,99999999' 
ADCP,ioos:station:wmo:42890:1,2015-07-01T21:52:00Z,27.6250,-90.4410,15.2,4.0,30.1,-9999.0,'11111222,11111222,99999999' 
ADCP,ioos:station:wmo:42890:1,2015-07-01T22:12:00Z,27.6250,-90.4410,15.2,37.0,27.3,-99999.0,'1111122,1111122,1199999999' 
ADCP,ioos:station:wmo:42890:1,2015-07-01T22:32:00Z,27.6250,-90.4410,15.2,27.0,24.3,-9999.0,'11111222,11111222,99999999' 
ADCP,ioos:station:wmo:42890:1,2015-07-01T22:52:00Z,27.6250,-90.4410,15.2,40.0,24.4,-9999.0,'11111222,11111222,99999999' 
ADCP,ioos:station:wmo:42890:1,2015-07-01T23:12:00Z,27.6250,-90.4410,15.2,24.0,18.2,-99999.0,'1111122,1111122,1199999999' 
ADCP,ioos:station:wmo:42890:1,2015-07-01T23:32:00Z,27.6250,-90.4410,15.2,53.0,19.4,-9999.0,'11111222,11111222,99999999' 
ADCP,ioos:station:wmo:42890:1,2015-07-01T23:52:00Z,27.6250,-90.4410,15.2,43.0,16.1,-9999.0,'11111222,11111222,99999999' 
ADCP,ioos:station:wmo:42890:1,2015-07-02T00:12:00Z,27.6250,-90.4410,15.2,42.0,10.9,-99999.0,'1111122,1111122,1199999999' 
ADCP,ioos:station:wmo:42890:1,2015-07-02T00:32:00Z,27.6250,-90.4410,15.2,25.0,13.8,-9999.0,'11111222,11111222,99999999' 
ADCP,ioos:station:wmo:42890:1,2015-07-02T00:52:00Z,27.6250,-90.4410,15.2,33.0,14.0,-9999.0,'11111222,11111222,99999999' 
ADCP,ioos:station:wmo:42890:1,2015-07-02T01:12:00Z,27.6250,-90.4410,15.2,65.0,22.5,-99999.0,'1111122,1111122,1199999999' 
ADCP,ioos:station:wmo:42890:1,2015-07-02T01:32:00Z,27.6250,-90.4410,15.2,258.0,51.9,-9999.0,'11111222,11111222,99999999' 
ADCP,ioos:station:wmo:42890:1,2015-07-02T01:52:00Z,27.6250,-90.4410,15.2,51.0,27.6,-9999.0,'11111222,11111222,99999999' 
ADCP,ioos:station:wmo:42890:1,2015-07-02T02:12:00Z,27.6250,-90.4410,15.2,267.0,41.2,-99999.0,'1111122,1111122,1199999999' 
ADCP,ioos:station:wmo:42890:1,2015-07-02T02:32:00Z,27.6250,-90.4410,15.2,42.0,33.9,-9999.0,'11111222,11111222,99999999' 
ADCP,ioos:station:wmo:42890:1,2015-07-02T02:52:00Z,27.6250,-90.4410,15.2,8.0,20.3,-9999.0,'11111222,11111222,99999999' 
ADCP,ioos:station:wmo:42890:1,2015-07-02T03:12:00Z,27.6250,-90.4410,15.2,61.0,50.4,-99999.0,'1111122,1111122,1199999999' 
ADCP,ioos:station:wmo:42890:1,2015-07-02T03:32:00Z,27.6250,-90.4410,15.2,62.0,37.4,-9999.0,'11111222,11111222,99999999' 
ADCP,ioos:station:wmo:42890:1,2015-07-02T03:52:00Z,27.6250,-90.4410,15.2,34.0,7.7,-9999.0,'11133222,11111222,99999999' 
ADCP,ioos:station:wmo:42890:1,2015-07-02T04:12:00Z,27.6250,-90.4410,15.2,291.0,9.3,-99999.0,'1111122,1111122,1199999999' 
ADCP,ioos:station:wmo:42890:1,2015-07-02T04:32:00Z,27.6250,-90.4410,15.2,79.0,18.0,-9999.0,'11111222,11111222,99999999' 
ADCP,ioos:station:wmo:42890:1,2015-07-02T04:52:00Z,27.6250,-90.4410,15.2,196.0,9.9,-9999.0,'11133222,11111222,99999999' 
ADCP,ioos:station:wmo:42890:1,2015-07-02T05:12:00Z,27.6250,-90.4410,15.2,185.0,6.2,-99999.0,'1111122,1111122,1199999999' 
ADCP,ioos:station:wmo:42890:1,2015-07-02T05:32:00Z,27.6250,-90.4410,15.2,235.0,13.1,-9999.0,'11111222,11111222,99999999' 
ADCP,ioos:station:wmo:42890:1,2015-07-02T05:52:00Z,27.6250,-90.4410,15.2,8.0,10.7,-9999.0,'11111222,11111222,99999999' 
ADCP,ioos:station:wmo:42890:1,2015-07-02T06:12:00Z,27.6250,-90.4410,15.2,266.0,15.0,-99999.0,'1111122,1111122,1199999999' 
ADCP,ioos:station:wmo:42890:1,2015-07-02T06:32:00Z,27.6250,-90.4410,15.2,262.0,17.8,-99999.0,'1111122,1111122,1199999999' 
ADCP,ioos:station:wmo:42890:1,2015-07-02T06:52:00Z,27.6250,-90.4410,15.2,266.0,18.8,-9999.0,'11111222,11111222,99999999' 
ADCP,ioos:station:wmo:42890:1,2015-07-02T07:12:00Z,27.6250,-90.4410,15.2,274.0,31.2,-9999.0,'11111222,11111222,99999999' 
ADCP,ioos:station:wmo:42890:1,2015-07-02T07:32:00Z,27.6250,-90.4410,15.2,307.0,25.1,-9999.0,'11111222,11111222,99999999' 
ADCP,ioos:station:wmo:42890:1,2015-07-02T07:52:00Z,27.6250,-90.4410,15.2,286.0,18.6,-9999.0,'11111222,11111222,99999999' 
ADCP,ioos:station:wmo:42890:1,2015-07-02T08:12:00Z,27.6250,-90.4410,15.2,247.0,21.8,-99999.0,'1111122,1111122,1199999999' 
ADCP,ioos:station:wmo:42890:1,2015-07-02T08:32:00Z,27.6250,-90.4410,15.2,261.0,16.6,-9999.0,'11111222,11111222,99999999' 
ADCP,ioos:station:wmo:42890:1,2015-07-02T08:52:00Z,27.6250,-90.4410,15.2,272.0,28.7,-9999.0,'11111222,11111222,99999999' 
ADCP,ioos:station:wmo:42890:1,2015-07-02T09:12:00Z,27.6250,-90.4410,15.2,259.0,39.5,-99999.0,'1111122,1111122,1199999999' 
ADCP,ioos:station:wmo:42890:1,2015-07-02T09:32:00Z,27.6250,-90.4410,15.2,69.0,29.1,-9999.0,'11111222,11111222,99999999' 
ADCP,ioos:station:wmo:42890:1,2015-07-02T09:52:00Z,27.6250,-90.4410,15.2,264.0,31.6,-9999.0,'11111222,11111222,99999999' 
ADCP,ioos:station:wmo:42890:1,2015-07-02T10:12:00Z,27.6250,-90.4410,15.2,289.0,12.0,-99999.0,'1111122,1111122,1199999999' 
ADCP,ioos:station:wmo:42890:1,2015-07-02T10:32:00Z,27.6250,-90.4410,15.2,347.0,11.5,-9999.0,'11111222,11111222,99999999' 
ADCP,ioos:station:wmo:42890:1,2015-07-02T10:52:00Z,27.6250,-90.4410,15.2,302.0,14.7,-9999.0,'11111222,11111222,99999999' 
ADCP,ioos:station:wmo:42890:1,2015-07-02T11:12:00Z,27.6250,-90.4410,15.2,9.0,7.9,-99999.0,'1111122,1111122,1199999999' 
ADCP,ioos:station:wmo:42890:1,2015-07-02T11:32:00Z,27.6250,-90.4410,15.2,289.0,11.6,-9999.0,'11111222,11111222,99999999' 
ADCP,ioos:station:wmo:42890:1,2015-07-02T11:52:00Z,27.6250,-90.4410,15.2,21.0,11.6,-9999.0,'11111222,11111222,99999999' 
ADCP,ioos:station:wmo:42890:1,2015-07-02T12:12:00Z,27.6250,-90.4410,15.2,295.0,20.5,-99999.0,'1111122,1111122,1199999999' 
ADCP,ioos:station:wmo:42890:1,2015-07-02T12:32:00Z,27.6250,-90.4410,15.2,52.0,11.6,-9999.0,'11111222,11111222,99999999' 
ADCP,ioos:station:wmo:42890:1,2015-07-02T12:52:00Z,27.6250,-90.4410,15.2,50.0,34.7,-9999.0,'11111222,11111222,99999999' 
ADCP,ioos:station:wmo:42890:1,2015-07-02T13:12:00Z,27.6250,-90.4410,15.2,350.0,14.2,-99999.0,'1111122,1111122,1199999999' 
ADCP,ioos:station:wmo:42890:1,2015-07-02T13:32:00Z,27.6250,-90.4410,15.2,55.0,35.9,-9999.0,'11111222,11111222,99999999' 
ADCP,ioos:station:wmo:42890:1,2015-07-02T13:52:00Z,27.6250,-90.4410,15.2,47.0,34.7,-9999.0,'11111222,11111222,99999999' 
ADCP,ioos:station:wmo:42890:1,2015-07-02T14:12:00Z,27.6250,-90.4410,15.2,39.0,31.5,-99999.0,'1111122,1111122,1199999999' 
ADCP,ioos:station:wmo:42890:1,2015-07-02T14:32:00Z,27.6250,-90.4410,15.2,317.0,25.7,-9999.0,'11111222,11111222,99999999' 
ADCP,ioos:station:wmo:42890:1,2015-07-02T14:52:00Z,27.6250,-90.4410,15.2,323.0,35.4,-9999.0,'11111222,11111222,99999999' 
ADCP,ioos:station:wmo:42890:1,2015-07-02T15:12:00Z,27.6250,-90.4410,15.2,1.0,26.6,-99999.0,'1111122,1111122,1199999999' 
ADCP,ioos:station:wmo:42890:1,2015-07-02T15:32:00Z,27.6250,-90.4410,15.2,316.0,37.8,-9999.0,'11111222,11111222,99999999' 
ADCP,ioos:station:wmo:42890:1,2015-07-02T15:52:00Z,27.6250,-90.4410,15.2,327.0,29.1,-9999.0,'11111222,11111222,99999999' 
ADCP,ioos:station:wmo:42890:1,2015-07-02T16:12:00Z,27.6250,-90.4410,15.2,332.0,29.7,-9999.0,'11111222,11111222,99999999' 
ADCP,ioos:station:wmo:42890:1,2015-07-02T16:32:00Z,27.6250,-90.4410,15.2,320.0,31.8,-9999.0,'11111222,11111222,99999999' 
ADCP,ioos:station:wmo:42890:1,2015-07-02T16:52:00Z,27.6250,-90.4410,15.2,328.0,27.2,-9999.0,'11111222,11111222,99999999' 
ADCP,ioos:station:wmo:42890:1,2015-07-02T17:12:00Z,27.6250,-90.4410,15.2,334.0,27.5,-99999.0,'1111122,1111122,1199999999' 
ADCP,ioos:station:wmo:42890:1,2015-07-02T17:32:00Z,27.6250,-90.4410,15.2,351.0,30.7,-9999.0,'11111222,11111222,99999999' 
ADCP,ioos:station:wmo:42890:1,2015-07-02T17:52:00Z,27.6250,-90.4410,15.2,333.0,37.9,-9999.0,'11111222,11111222,99999999' 
ADCP,ioos:station:wmo:42890:1,2015-07-02T18:12:00Z,27.6250,-90.4410,15.2,352.0,39.6,-99999.0,'1111122,1111122,1199999999' 
ADCP,ioos:station:wmo:42890:1,2015-07-02T18:32:00Z,27.6250,-90.4410,15.2,359.0,42.8,-9999.0,'11111222,11111222,99999999' 
ADCP,ioos:station:wmo:42890:1,2015-07-02T18:52:00Z,27.6250,-90.4410,15.2,15.0,40.3,-9999.0,'11111222,11111222,99999999' 
ADCP,ioos:station:wmo:42890:1,2015-07-02T19:12:00Z,27.6250,-90.4410,15.2,13.0,42.0,-99999.0,'1111122,1111122,1199999999' 
ADCP,ioos:station:wmo:42890:1,2015-07-02T19:32:00Z,27.6250,-90.4410,15.2,18.0,52.0,-9999.0,'11111222,11111222,99999999' 
ADCP,ioos:station:wmo:42890:1,2015-07-02T19:52:00Z,27.6250,-90.4410,15.2,22.0,57.9,-9999.0,'11111222,11111222,99999999' 
ADCP,ioos:station:wmo:42890:1,2015-07-02T20:12:00Z,27.6250,-90.4410,15.2,23.0,52.3,-99999.0,'1111122,1111122,1199999999' 
ADCP,ioos:station:wmo:42890:1,2015-07-02T20:32:00Z,27.6250,-90.4410,15.2,33.0,43.0,-9999.0,'11111222,11111222,99999999' 
ADCP,ioos:station:wmo:42890:1,2015-07-02T20:52:00Z,27.6250,-90.4410,15.2,15.0,35.8,-9999.0,'11111222,11111222,99999999' 
ADCP,ioos:station:wmo:42890:1,2015-07-02T21:12:00Z,27.6250,-90.4410,15.2,345.0,36.2,-99999.0,'1111122,1111122,1199999999' 
ADCP,ioos:station:wmo:42890:1,2015-07-02T21:32:00Z,27.6250,-90.4410,15.2,16.0,42.1,-9999.0,'11111222,11111222,99999999' 
ADCP,ioos:station:wmo:42890:1,2015-07-02T21:52:00Z,27.6250,-90.4410,15.2,341.0,35.0,-9999.0,'11111222,11111222,99999999' 
ADCP,ioos:station:wmo:42890:1,2015-07-02T22:12:00Z,27.6250,-90.4410,15.2,344.0,31.3,-9999.0,'11111222,11111222,99999999' 
ADCP,ioos:station:wmo:42890:1,2015-07-02T22:32:00Z,27.6250,-90.4410,15.2,351.0,29.9,-9999.0,'11111222,11111222,99999999' 
ADCP,ioos:station:wmo:42890:1,2015-07-02T22:52:00Z,27.6250,-90.4410,15.2,34.0,45.5,-9999.0,'11111222,11111222,99999999' 
ADCP,ioos:station:wmo:42890:1,2015-07-02T23:12:00Z,27.6250,-90.4410,15.2,21.0,43.4,-9999.0,'11111222,11111222,99999999' 
ADCP,ioos:station:wmo:42890:1,2015-07-02T23:32:00Z,27.6250,-90.4410,15.2,21.0,39.0,-9999.0,'11111222,11111222,99999999' 
ADCP,ioos:station:wmo:42890:1,2015-07-02T23:52:00Z,27.6250,-90.4410,15.2,22.0,30.8,-9999.0,'11111222,11111222,99999999' 
ADCP,ioos:station:wmo:42890:1,2015-07-03T00:12:00Z,27.6250,-90.4410,15.2,19.0,29.2,-9999.0,'11111222,11111222,99999999' 
ADCP,ioos:station:wmo:42890:1,2015-07-03T00:32:00Z,27.6250,-90.4410,15.2,41.0,40.0,-9999.0,'11111222,11111222,99999999' 
ADCP,ioos:station:wmo:42890:1,2015-07-03T00:52:00Z,27.6250,-90.4410,15.2,34.0,32.9,-9999.0,'11111222,11111222,99999999' 
ADCP,ioos:station:wmo:42890:1,2015-07-03T01:12:00Z,27.6250,-90.4410,15.2,25.0,43.8,-9999.0,'11111222,11111222,99999999' 
ADCP,ioos:station:wmo:42890:1,2015-07-03T01:32:00Z,27.6250,-90.4410,15.2,29.0,53.5,-9999.0,'11111222,11111222,99999999' 
ADCP,ioos:station:wmo:42890:1,2015-07-03T01:52:00Z,27.6250,-90.4410,15.2,29.0,48.8,-9999.0,'11111222,11111222,99999999' 
ADCP,ioos:station:wmo:42890:1,2015-07-03T02:12:00Z,27.6250,-90.4410,15.2,31.0,44.5,-9999.0,'11111222,11111222,99999999' 
ADCP,ioos:station:wmo:42890:1,2015-07-03T02:32:00Z,27.6250,-90.4410,15.2,34.0,40.7,-9999.0,'11111222,11111222,99999999' 
ADCP,ioos:station:wmo:42890:1,2015-07-03T02:52:00Z,27.6250,-90.4410,15.2,34.0,39.9,-9999.0,'11111222,11111222,99999999' 
ADCP,ioos:station:wmo:42890:1,2015-07-03T03:12:00Z,27.6250,-90.4410,15.2,43.0,38.7,-9999.0,'11111222,11111222,99999999' 
ADCP,ioos:station:wmo:42890:1,2015-07-03T03:32:00Z,27.6250,-90.4410,15.2,43.0,34.0,-9999.0,'11111222,11111222,99999999' 
ADCP,ioos:station:wmo:42890:1,2015-07-03T03:52:00Z,27.6250,-90.4410,15.2,40.0,33.2,-9999.0,'11111222,11111222,99999999' 
ADCP,ioos:station:wmo:42890:1,2015-07-03T04:12:00Z,27.6250,-90.4410,15.2,39.0,29.9,-9999.0,'11111222,11111222,99999999' 
ADCP,ioos:station:wmo:42890:1,2015-07-03T04:32:00Z,27.6250,-90.4410,15.2,36.0,28.3,-9999.0,'11111222,11111222,99999999' 
ADCP,ioos:station:wmo:42890:1,2015-07-03T04:52:00Z,27.6250,-90.4410,15.2,38.0,26.7,-9999.0,'11111222,11111222,99999999' 
ADCP,ioos:station:wmo:42890:1,2015-07-03T05:12:00Z,27.6250,-90.4410,15.2,38.0,23.2,-9999.0,'11111222,11111222,99999999' 
ADCP,ioos:station:wmo:42890:1,2015-07-03T05:32:00Z,27.6250,-90.4410,15.2,34.0,17.7,-9999.0,'11111222,11111222,99999999' 
ADCP,ioos:station:wmo:42890:1,2015-07-03T05:52:00Z,27.6250,-90.4410,15.2,39.0,15.8,-9999.0,'11111222,11111222,99999999' 
ADCP,ioos:station:wmo:42890:1,2015-07-03T06:12:00Z,27.6250,-90.4410,15.2,35.0,13.1,-9999.0,'11111222,11111222,99999999' 
ADCP,ioos:station:wmo:42890:1,2015-07-03T06:32:00Z,27.6250,-90.4410,15.2,24.0,10.2,-9999.0,'11111222,11111222,99999999' 
ADCP,ioos:station:wmo:42890:1,2015-07-03T06:52:00Z,27.6250,-90.4410,15.2,10.0,6.6,-9999.0,'11133222,11111222,99999999' 
ADCP,ioos:station:wmo:42890:1,2015-07-03T07:12:00Z,27.6250,-90.4410,15.2,27.0,6.9,-9999.0,'11133222,11111222,99999999' 
ADCP,ioos:station:wmo:42890:1,2015-07-03T07:32:00Z,27.6250,-90.4410,15.2,11.0,6.4,-9999.0,'11133222,11111222,99999999' 
ADCP,ioos:station:wmo:42890:1,2015-07-03T07:52:00Z,27.6250,-90.4410,15.2,0.0,5.2,-9999.0,'11133222,11111222,99999999' 
ADCP,ioos:station:wmo:42890:1,2015-07-03T08:12:00Z,27.6250,-90.4410,15.2,351.0,6.7,-9999.0,'11133222,11111222,99999999' 
ADCP,ioos:station:wmo:42890:1,2015-07-03T08:32:00Z,27.6250,-90.4410,15.2,285.0,9.2,-9999.0,'11133222,11111222,99999999' 
ADCP,ioos:station:wmo:42890:1,2015-07-03T08:52:00Z,27.6250,-90.4410,15.2,319.0,6.6,-9999.0,'11133222,11111222,99999999' 
ADCP,ioos:station:wmo:42890:1,2015-07-03T09:12:00Z,27.6250,-90.4410,15.2,360.0,0.0,-9999.0,'11133222,11144222,99999999' 
ADCP,ioos:station:wmo:42890:1,2015-07-03T09:32:00Z,27.6250,-90.4410,15.2,360.0,0.0,-9999.0,'11133222,11144222,99999999' 
ADCP,ioos:station:wmo:42890:1,2015-07-03T09:52:00Z,27.6250,-90.4410,15.2,360.0,0.0,-9999.0,'11133222,11144222,99999999' 
ADCP,ioos:station:wmo:42890:1,2015-07-03T10:12:00Z,27.6250,-90.4410,15.2,360.0,0.0,-9999.0,'11133222,11144222,99999999' 
ADCP,ioos:station:wmo:42890:1,2015-07-03T10:32:00Z,27.6250,-90.4410,15.2,360.0,0.0,-9999.0,'11133222,11144222,99999999' 
ADCP,ioos:station:wmo:42890:1,2015-07-03T10:52:00Z,27.6250,-90.4410,15.2,360.0,0.0,-9999.0,'11133222,11144222,99999999' 
ADCP,ioos:station:wmo:42890:1,2015-07-03T11:12:00Z,27.6250,-90.4410,15.2,360.0,0.0,-9999.0,'11133222,11144222,99999999' 
ADCP,ioos:station:wmo:42890:1,2015-07-03T11:32:00Z,27.6250,-90.4410,15.2,360.0,0.0,-9999.0,'11133222,11144222,99999999' 
ADCP,ioos:station:wmo:42890:1,2015-07-03T11:52:00Z,27.6250,-90.4410,15.2,360.0,0.0,-9999.0,'11133222,11144222,99999999' 
ADCP,ioos:station:wmo:42890:1,2015-07-03T12:12:00Z,27.6250,-90.4410,15.2,242.0,9.5,-9999.0,'11133222,11111222,99999999' 
ADCP,ioos:station:wmo:42890:1,2015-07-03T12:32:00Z,27.6250,-90.4410,15.2,275.0,52.8,-9999.0,'11111222,11111222,99999999' 
ADCP,ioos:station:wmo:42890:1,2015-07-03T12:52:00Z,27.6250,-90.4410,15.2,270.0,16.3,-9999.0,'11111222,11111222,99999999' 
ADCP,ioos:station:wmo:42890:1,2015-07-03T13:12:00Z,27.6250,-90.4410,15.2,86.0,16.1,-99999.0,'1111122,1111122,1199999999' 
ADCP,ioos:station:wmo:42890:1,2015-07-03T13:32:00Z,27.6250,-90.4410,15.2,348.0,18.2,-9999.0,'11111222,11111222,99999999' 
ADCP,ioos:station:wmo:42890:1,2015-07-03T13:52:00Z,27.6250,-90.4410,15.2,7.0,3.2,-9999.0,'11133222,11111222,99999999' 
ADCP,ioos:station:wmo:42890:1,2015-07-03T14:12:00Z,27.6250,-90.4410,15.2,318.0,9.3,-99999.0,'1111122,1111122,1199999999' 
ADCP,ioos:station:wmo:42890:1,2015-07-03T14:32:00Z,27.6250,-90.4410,15.2,360.0,0.0,-9999.0,'11133222,11144222,99999999' 
ADCP,ioos:station:wmo:42890:1,2015-07-03T14:52:00Z,27.6250,-90.4410,15.2,36.0,15.3,-9999.0,'11111222,11111222,99999999' 
ADCP,ioos:station:wmo:42890:1,2015-07-03T15:12:00Z,27.6250,-90.4410,15.2,284.0,40.4,-99999.0,'1111122,1111122,1199999999' 
ADCP,ioos:station:wmo:42890:1,2015-07-03T15:32:00Z,27.6250,-90.4410,15.2,360.0,0.0,-9999.0,'11133222,11144222,99999999' 
ADCP,ioos:station:wmo:42890:1,2015-07-03T15:52:00Z,27.6250,-90.4410,15.2,360.0,0.0,-9999.0,'11133222,11144222,99999999' 
ADCP,ioos:station:wmo:42890:1,2015-07-03T16:12:00Z,27.6250,-90.4410,15.2,0.0,0.0,-99999.0,'1114422,1114422,1199999999' 
ADCP,ioos:station:wmo:42890:1,2015-07-03T16:32:00Z,27.6250,-90.4410,15.2,306.0,23.5,-9999.0,'11111222,11111222,99999999' 
ADCP,ioos:station:wmo:42890:1,2015-07-03T16:52:00Z,27.6250,-90.4410,15.2,127.0,34.0,-9999.0,'11111222,11111222,99999999' 
ADCP,ioos:station:wmo:42890:1,2015-07-03T17:12:00Z,27.6250,-90.4410,15.2,0.0,0.0,-99999.0,'1114422,1114422,1199999999' 